Probability
3 0 0 0 0 0 0 0 0 0 0 0 0 0 0 0 0 0 0 0 0 0 0 0 0 0 0 0 0 0 0 0 0 0 0 0 0 0 0 0 0 0 0
0 0 0 0 0 0 0 0 0 0 0 0 0 0 0 0 0 0 0 0 0 0 0 0 0 0 0 0 0 0 0 0 0 0 0 0 0 0 0 0 0 0 0
0 0 0 0 0 0 0 0 0 0 0 0 0 0 0 0 0 0 0 0 0 0 0 0 0 0 0 0 0 0 0 0 0 0 0 0 0 0 0 0 0 0 0
0 0 0 0 0 0 0 0 0 0 0 0 0 0 0 0 0 0 0 0 0 0 0 0 0 0 0 0 0 0 0 0 0 0 0 0 0 0 0 0 0 0 0
0 0 0 0 0 0 0 0 0 0 0 0 0 0 0 0 0 0 0 0 0 0 0 0 0 0 0 0 0 0 0 0 0 0 0 0 0 0 0 0 0 0 0
0 0 0 0 0 0 0 0 0 0 0 0 0 0 0 0 0 0 0 0 0 0 0 0 0 0 0 0 0 0 0 0 0 0 0 0 0 0 0 0 0 0 0
0 0 0 0 0 0 0 0 0 0 0 0 0 0 0 0 0 0 0 0 0 0 0 0 0 0 0 0 0 0 0 0 0 0 0 0 0 0 0 0 0 0 0
0 0 0 0 0 0 0 0 0 0 0 0 0 0 0 0 0 0 0 0 0 0 0 0 0 0 0 0 0 0 0 0 0 0 0 0 0 0 0 0 0 0 0
0 0 0 0 0 0 0 0 0 0 0 0 0 0 0 0 0 0 0 0 0 0 0 0 0 0 0 0 0 0 0 0 0 0 0 0 0 0 0 0 0 0 0
0 0 0 0 0 0 0 0 0 0 0 0 0 0 0 0 0 0 0 0 0 0 0 0 0 0 0 0 0 0 0 0 0 0 0 0 0 0 0 0 0 0 0
0 0 0 0 0 0 0 0 0 0 0 0 0 0 0 0 0 0 0 0 0 0 0 0 0 0 0 0 0 0 0 0 0 0 0 0 0 0 0 0 0 0 0
0 0 0 0 0 0 0 0 0 0 0 0 0 0 0 0 0 0 0 0 0 0 0 0 0 0 0 0 0 0 0 0 0 0 0 0 0 0 0 0 0 0 0
0 0 0 0 0 0 0 0 0 0 0 0 0 0 0 0 0 0 0 0 0 0 0 0 0 0 0 0 0 0 0 0 0 0 0 0 0 0 0 0 0 0 0
0 0 0 0 0 0 0 0 0 0 0 0 0 0 0 0 0 0 0 0 0 0 0 0 0 0 0 0 0 0 0 0 0 0 0 0 0 0 0 0 0 0 0
0 0 0 0 0 0 0 0 0 0 0 0 0 0 0 0 0 0 0 0 0 0 0 0 0 0 0 0 0 0 0 0 0 0 0 0 0 0 0 0 0 0 0
0 0 0 0 0 0 0 0 0 0 0 0 0 0 0 0 0 0 0 0 0 0 0 0 0 0 0 0 0 0 0 0 0 0 0 0 0 0 0 0 0 0 0
0 0 0 0 0 0 0 0 0 0 0 0 0 0 0 0 0 0 0 0 0 0 0 0 0 0 0 0 0 0 0 0 0 0 0 0 0 0 0 0 0 0 0
0 0 0 0 0 0 0 0 0 0 0 0 0 0 0 0 0 0 0 0 0 0 0 0 0 0 0 0 0 0 0 0 0 0 0 0 0 0 0 0 0 0 0
0 0 0 0 0 0 0 0 0 0 0 0 0 0 0 0 0 0 0 0 0 0 0 0 0 0 0 0 0 0 0 0 0 0 0 0 0 0 0 0 0 0 0
0 0 0 0 0 0 0 0 0 0 0 0 0 0 0 0 0 0 0 0 0 0 0 0 0 0 0 0 0 0 0 0 0 0 0 0 0 0 0 0 0 0 0
0 0 0 0 0 0 0 0 0 0 0 0 0 0 0 0 0 0 0 0 0 0 0 0 0 0 0 0 0 0 0 0 0 0 0 0 0 0 0 0 0 0 0
0 0 0 0 0 0 0 0 0 0 0 0 0 0 0 0 0 0 0 0 0 0 0 0 0 0 0 0 0 0 0 0 0 0 0 0 0 0 0 0 0 0 0
0 0 0 0 0 0 0 0 0 0 0 0 0 0 0 0 0 0 0 0 0 0 0 0 0 0 0 0 0 0 0 0 0 0 0 0 0 0 0 0 0 0 0
0 0 0 0 0 0 0 0 0 0 0 0 0 0 0 0 0 0 0 0 0 0 0 0 0 0 0 0 0 0 0 0 0 0 0 0 0 0 0 0 0 0 0
0 0 0 0 0 0 0 0 0 0 0 0 0 0 0 0 0 0 0 0 0 0 0 0 0 0 0 0 0 0 0 0 0 0 0 0 0 0 0 0 0 0 0
0 0 0 0 0 0 0 0 0 0 0 0 0 0 0 0 0 0 0 0 0 0 0 0 0 0 0 0 0 0 0 0 0 0 0 0 0 0 0 0 0 0 0
Height
5779 5776 5773 5769 5766 5763 5760 5757 5754 5751 5748 5746 5743 5740 5737 5734 5731 5727 5724 5721 5719 5716 5713 5710 5706 5703 5700 5697 5695 5693 5691 5690 5689 5688 5686 5684 5682 5681 5680 5679 5679 5679 5679
5773 5770 5767 5764 5760 5757 5754 5751 5749 5746 5744 5741 5738 5735 5732 5729 5726 5723 5720 5717 5714 5711 5708 5705 5701 5698 5695 5692 5690 5688 5686 5684 5683 5681 5680 5678 5676 5675 5673 5672 5672 5672 5672
5768 5765 5761 5758 5754 5751 5748 5745 5743 5741 5738 5736 5733 5730 5727 5724 5722 5719 5715 5712 5709 5706 5703 5700 5697 5694 5690 5688 5685 5683 5680 5679 5677 5675 5674 5672 5670 5669 5667 5666 5665 5664 5664
5762 5759 5756 5752 5749 5746 5742 5740 5737 5735 5733 5731 5728 5726 5723 5720 5717 5714 5711 5708 5705 5702 5699 5696 5693 5689 5686 5683 5680 5678 5675 5673 5671 5669 5668 5666 5664 5662 5661 5660 5659 5658 5658
5756 5753 5750 5747 5744 5741 5738 5735 5732 5730 5728 5726 5723 5721 5718 5715 5712 5710 5707 5704 5701 5698 5695 5692 5688 5685 5681 5678 5675 5673 5670 5668 5666 5664 5662 5660 5658 5657 5655 5654 5652 5651 5651
5750 5748 5745 5742 5739 5736 5733 5731 5728 5726 5724 5721 5719 5716 5713 5710 5708 5705 5703 5700 5697 5694 5691 5687 5684 5680 5677 5674 5671 5668 5666 5663 5661 5659 5657 5655 5653 5651 5649 5647 5646 5645 5645
5744 5742 5740 5737 5734 5731 5729 5726 5724 5721 5719 5717 5714 5712 5709 5706 5704 5702 5699 5696 5693 5690 5687 5683 5680 5677 5673 5669 5667 5664 5661 5659 5656 5654 5652 5649 5647 5645 5643 5642 5640 5639 5638
5739 5737 5734 5732 5729 5726 5724 5721 5719 5717 5715 5713 5711 5709 5706 5703 5701 5698 5695 5692 5689 5686 5683 5679 5676 5673 5670 5666 5663 5660 5657 5654 5651 5649 5646 5644 5641 5639 5637 5635 5634 5633 5632
5734 5732 5729 5726 5724 5721 5719 5717 5715 5712 5710 5709 5707 5705 5702 5700 5698 5695 5691 5688 5685 5682 5679 5676 5673 5670 5666 5663 5660 5657 5654 5650 5647 5644 5641 5638 5636 5633 5631 5629 5628 5627 5626
5729 5727 5724 5722 5719 5717 5715 5713 5711 5708 5706 5705 5703 5701 5699 5696 5694 5691 5688 5685 5682 5679 5676 5673 5670 5666 5663 5659 5656 5653 5650 5647 5643 5640 5637 5634 5631 5628 5626 5624 5622 5620 5619
5725 5723 5720 5718 5715 5713 5711 5709 5707 5705 5703 5701 5699 5697 5695 5692 5690 5687 5684 5682 5679 5676 5673 5669 5666 5663 5659 5656 5653 5649 5646 5643 5639 5636 5633 5629 5626 5623 5621 5618 5616 5615 5613
5721 5719 5716 5714 5711 5709 5707 5705 5703 5701 5699 5697 5696 5694 5691 5689 5686 5684 5681 5678 5676 5673 5669 5666 5663 5660 5656 5653 5649 5646 5642 5639 5635 5632 5629 5625 5622 5619 5616 5613 5611 5609 5607
5717 5715 5712 5710 5708 5705 5704 5702 5700 5698 5696 5694 5693 5691 5688 5686 5683 5680 5678 5675 5672 5669 5666 5662 5659 5656 5652 5648 5645 5642 5638 5635 5631 5627 5624 5620 5617 5614 5611 5608 5606 5603 5601
5713 5711 5709 5707 5705 5703 5701 5699 5698 5696 5694 5692 5690 5688 5686 5683 5680 5677 5674 5671 5668 5665 5662 5658 5655 5651 5647 5644 5640 5637 5634 5630 5626 5622 5619 5615 5612 5609 5606 5603 5601 5598 5595
5710 5708 5706 5704 5702 5700 5699 5697 5696 5694 5692 5690 5688 5686 5684 5681 5678 5675 5671 5668 5665 5662 5658 5654 5651 5647 5643 5639 5636 5632 5628 5624 5621 5617 5614 5611 5608 5604 5601 5598 5595 5592 5589
5707 5706 5704 5703 5700 5699 5698 5696 5694 5692 5690 5688 5686 5683 5681 5678 5674 5672 5668 5665 5661 5658 5654 5650 5646 5643 5639 5635 5631 5627 5623 5620 5616 5612 5609 5605 5602 5599 5595 5592 5589 5586 5583
5705 5704 5702 5701 5699 5698 5696 5695 5693 5691 5689 5687 5684 5681 5678 5675 5672 5669 5665 5661 5658 5654 5650 5646 5643 5639 5635 5631 5627 5623 5619 5615 5611 5607 5603 5600 5597 5593 5590 5586 5583 5580 5576
5703 5702 5701 5699 5698 5696 5695 5693 5691 5689 5687 5685 5682 5679 5676 5673 5669 5666 5662 5658 5654 5650 5647 5643 5639 5635 5631 5627 5623 5619 5614 5610 5606 5602 5598 5595 5591 5588 5584 5581 5577 5574 5571
5702 5701 5699 5698 5697 5695 5694 5692 5690 5688 5685 5682 5679 5677 5674 5670 5667 5663 5659 5655 5651 5647 5643 5639 5635 5631 5627 5623 5619 5614 5610 5606 5601 5597 5593 5589 5586 5582 5578 5575 5571 5568 5565
5700 5699 5698 5697 5696 5694 5693 5690 5688 5686 5683 5680 5678 5675 5671 5668 5665 5661 5657 5652 5648 5644 5640 5636 5631 5627 5623 5619 5614 5610 5605 5601 5597 5592 5588 5584 5581 5577 5573 5569 5566 5562 5558
5699 5699 5698 5697 5695 5693 5691 5689 5686 5684 5681 5678 5675 5672 5669 5666 5662 5658 5654 5649 5645 5641 5636 5632 5627 5623 5619 5614 5610 5605 5601 5596 5592 5587 5583 5579 5575 5572 5568 5564 5560 5556 5552
5699 5698 5697 5696 5694 5692 5690 5688 5685 5682 5679 5677 5674 5670 5667 5663 5659 5655 5651 5646 5642 5637 5632 5628 5623 5619 5614 5610 5605 5601 5596 5591 5587 5582 5578 5574 5570 5567 5563 5559 5555 5551 5547
5698 5697 5696 5695 5693 5691 5689 5686 5684 5681 5678 5675 5672 5669 5665 5661 5657 5653 5648 5644 5639 5634 5629 5625 5620 5615 5610 5606 5601 5596 5591 5587 5582 5578 5573 5569 5565 5561 5557 5553 5549 5545 5542
5697 5696 5695 5694 5692 5689 5687 5685 5682 5679 5677 5674 5670 5667 5663 5659 5655 5651 5646 5641 5637 5632 5627 5622 5617 5612 5607 5602 5597 5592 5587 5582 5578 5573 5569 5565 5561 5557 5552 5548 5544 5540 5536
5696 5695 5694 5692 5690 5688 5686 5683 5681 5678 5675 5672 5669 5665 5662 5658 5653 5649 5644 5639 5635 5629 5624 5619 5614 5608 5603 5598 5593 5588 5583 5578 5574 5569 5565 5561 5556 5552 5548 5544 5540 5536 5532
5694 5693 5692 5690 5688 5686 5684 5682 5679 5677 5674 5671 5667 5664 5660 5656 5652 5647 5643 5638 5633 5627 5622 5616 5611 5605 5600 5594 5589 5584 5579 5574 5570 5565 5561 5557 5553 5549 5544 5540 5536 5531 5527
Wind_Speed
22 22 22 23 23 23 22 21 21 21 20 20 20 20 20 20 21 20 19 19 20 20 21 21 21 21 20 20 19 20 21 21 20 20 21 22 22 22 23 23 24 25 25
21 21 22 22 22 21 21 22 21 20 20 20 20 20 20 21 20 20 18 17 18 18 19 20 20 20 19 19 19 19 20 20 21 20 20 21 22 22 23 23 23 24 24
20 21 21 21 21 20 20 20 21 20 20 20 19 19 20 20 19 18 18 18 18 18 19 19 19 19 18 18 19 19 19 20 20 20 20 20 21 22 22 23 23 23 24
21 21 21 21 20 20 19 20 20 19 19 19 19 19 19 18 18 17 18 18 18 18 19 18 18 18 18 18 18 18 19 19 20 19 19 19 20 21 20 21 21 21 22
21 20 21 20 19 19 19 19 18 18 18 18 19 19 18 18 17 17 17 18 18 18 18 18 18 18 18 19 19 18 18 18 18 18 18 19 20 20 20 21 21 21 21
20 19 18 18 18 18 18 18 17 17 17 17 18 17 16 17 16 16 16 17 17 17 18 18 18 18 18 18 18 17 17 17 18 18 19 19 19 20 20 21 21 21 21
19 18 18 18 18 17 17 17 16 16 16 16 16 15 15 15 15 16 16 16 16 16 16 16 17 17 17 16 16 16 17 18 18 18 19 19 19 20 20 19 19 20 20
18 18 18 18 18 17 17 16 16 16 16 16 15 15 15 16 16 16 16 16 15 15 15 15 16 16 16 16 16 17 18 18 18 18 19 19 19 19 19 18 18 18 19
18 17 17 17 16 16 16 16 15 16 15 15 16 15 15 15 15 16 16 15 15 15 15 15 16 16 17 17 17 17 17 17 17 17 17 17 18 18 18 18 18 18 19
16 16 16 16 15 15 15 15 15 15 14 14 14 14 14 14 14 14 14 14 14 14 15 15 16 16 17 17 17 17 17 17 17 17 17 17 16 17 17 17 17 18 18
16 15 15 14 14 13 13 14 14 14 13 13 13 14 14 14 14 14 14 14 14 14 15 15 15 16 17 17 17 18 18 18 17 18 18 18 18 18 18 18 18 18 18
15 14 13 13 13 12 12 12 12 12 13 12 12 13 13 14 14 14 14 14 15 15 15 16 16 17 17 17 17 18 18 18 18 18 19 19 19 19 18 18 18 18 18
14 13 13 12 12 11 11 11 11 11 11 11 11 12 13 13 14 14 14 15 15 16 16 16 17 17 18 18 18 19 19 19 19 19 19 19 19 19 19 19 19 19 20
13 12 12 11 11 10 10 9 10 10 10 10 10 12 13 13 14 14 15 15 16 16 17 17 18 18 19 19 20 20 20 20 20 19 19 19 19 19 20 20 20 19 19
12 11 11 10 10 8 8 8 8 9 10 10 10 12 13 14 14 14 15 16 16 17 18 19 19 19 19 19 20 21 21 21 21 20 20 20 20 20 20 20 20 20 20
9 9 9 9 8 7 7 7 8 9 10 11 11 12 14 14 15 15 16 17 18 18 18 19 19 19 20 20 20 21 22 21 21 21 20 19 20 20 20 21 21 20 20
8 8 8 8 7 7 7 8 8 10 11 11 12 13 14 15 15 16 17 18 18 18 18 19 19 19 20 20 20 21 22 21 22 22 21 20 20 20 20 20 21 21 21
6 6 7 7 7 7 7 8 9 10 11 12 13 13 14 15 16 17 17 18 19 19 19 19 19 20 20 21 22 22 22 22 22 22 21 20 21 21 21 20 20 20 21
4 5 6 6 7 7 8 8 10 11 12 13 14 14 14 15 16 17 18 19 19 19 19 19 20 20 21 22 23 23 23 23 23 22 22 21 21 21 21 21 21 21 21
3 4 5 6 7 7 9 10 11 12 13 13 13 14 15 16 16 17 19 20 19 20 21 21 21 21 22 23 23 23 24 23 23 22 22 21 21 21 21 21 21 20 20
2 4 6 7 7 8 10 11 11 12 12 13 13 14 15 16 17 18 19 20 20 21 22 22 22 22 22 22 23 23 23 23 23 23 22 21 21 21 21 21 21 21 20
2 4 6 7 7 9 10 11 11 12 12 13 14 15 16 17 18 19 19 20 21 22 22 22 22 22 22 22 23 23 23 23 23 23 22 22 21 21 22 22 21 21 21
3 5 6 7 8 9 11 11 11 12 13 14 14 16 17 18 19 20 20 21 22 23 22 22 23 23 23 23 23 23 23 23 23 23 22 22 21 21 21 21 21 20 20
4 6 7 7 9 9 10 11 12 13 13 14 15 16 17 18 19 20 21 22 23 23 23 23 24 24 24 24 24 23 23 23 23 23 22 22 21 21 22 21 21 21 20
5 6 7 8 9 9 10 11 12 13 13 14 15 16 18 19 20 21 21 22 23 24 24 24 24 25 25 25 24 24 23 23 23 23 22 22 21 21 21 21 21 21 20
5 7 7 8 9 9 10 11 12 13 13 14 15 17 18 20 20 21 22 23 24 24 24 25 25 26 26 25 24 24 24 23 23 22 22 22 21 22 22 22 22 22 21
Wind_Direction
306 305 305 306 302 302 304 304 306 308 309 309 308 308 309 308 306 305 305 307 306 304 304 305 305 303 301 298 294 292 289 286 285 284 283 282 280 276 274 271 268 265 263
306 307 308 308 308 304 303 303 303 305 305 309 309 307 306 308 308 308 308 309 308 308 308 308 308 307 304 300 297 294 292 290 288 286 285 284 281 279 275 273 270 265 261
307 307 308 309 310 308 306 306 304 303 304 306 308 310 308 306 306 306 308 309 310 311 311 311 311 309 306 303 299 296 294 292 290 288 287 287 286 284 279 276 273 267 262
306 307 307 307 309 310 309 308 307 305 306 307 306 308 309 306 306 306 308 309 311 313 314 314 313 311 309 306 302 298 296 295 293 290 289 288 286 285 282 279 275 272 265
306 308 309 308 309 310 309 309 309 308 308 307 308 308 308 307 306 307 309 311 313 314 316 317 316 314 313 309 304 301 300 299 297 293 292 292 288 284 282 280 276 273 268
305 307 310 310 310 309 308 308 310 310 310 310 310 309 310 309 307 310 314 316 316 316 317 317 315 315 315 312 310 308 306 303 299 296 296 295 293 288 285 281 275 272 270
308 308 309 309 307 307 308 307 308 309 308 311 313 312 314 317 317 318 320 318 317 318 319 320 321 320 321 319 318 314 311 307 302 300 298 297 294 290 287 284 280 275 271
309 308 309 309 307 306 306 306 306 306 307 309 311 314 316 318 320 322 322 318 317 318 320 321 323 324 324 322 321 320 317 314 311 307 304 300 298 294 291 286 281 276 274
311 311 311 309 308 307 306 305 306 306 307 307 311 314 317 319 321 322 321 318 317 318 318 320 322 323 323 321 319 320 320 320 318 314 310 305 299 296 292 286 281 278 275
311 312 311 310 308 308 308 308 309 312 312 311 312 314 315 317 321 323 320 321 321 322 322 322 324 324 325 324 323 323 321 320 320 320 317 313 307 303 298 291 286 283 280
309 311 313 313 311 310 310 309 309 311 312 312 314 316 316 319 321 322 322 324 325 324 326 327 326 327 326 325 325 324 323 320 317 316 315 313 309 307 303 296 292 288 286
311 314 316 314 312 312 314 313 311 309 310 311 314 316 317 320 320 320 320 322 324 324 324 325 325 325 325 325 326 326 323 321 317 313 312 310 308 306 304 300 295 289 286
311 314 316 315 317 314 312 314 316 314 315 318 319 320 323 324 323 323 323 322 321 323 324 325 324 324 324 323 324 324 323 321 318 315 312 311 309 307 305 302 298 294 292
309 312 317 319 318 316 314 318 321 323 326 328 330 330 329 327 327 328 327 326 324 322 323 324 323 323 322 321 320 319 319 319 317 315 312 310 309 308 307 304 301 297 293
312 315 317 319 320 323 324 326 328 331 333 333 333 333 331 331 333 333 331 330 328 328 327 327 327 327 325 322 320 320 321 320 318 316 314 312 310 309 306 305 303 300 297
318 322 325 327 328 330 331 331 333 337 338 335 336 336 335 334 332 332 331 330 329 330 329 328 328 329 328 326 323 323 325 324 321 319 316 314 313 312 310 307 305 302 299
321 325 329 335 337 338 337 336 339 338 337 337 337 336 336 337 335 334 333 332 332 332 331 330 330 330 330 330 328 327 326 325 323 321 318 316 316 316 313 311 309 308 305
322 327 334 341 339 338 337 336 337 335 336 336 337 338 338 338 337 336 335 334 334 335 334 332 333 332 331 330 329 329 328 327 326 324 322 318 317 317 315 313 311 309 308
324 332 339 342 341 342 337 335 337 337 337 338 338 339 339 338 338 337 336 335 336 335 334 332 331 331 329 329 328 328 328 328 328 327 325 323 320 318 317 315 312 310 307
324 329 336 341 343 342 340 336 337 338 336 338 339 340 340 340 339 339 339 338 337 336 335 333 332 330 329 329 329 329 329 330 329 328 326 324 323 322 320 317 314 313 310
330 334 341 345 345 344 345 345 343 339 339 340 340 341 340 340 340 340 339 339 339 338 337 337 336 334 332 330 330 330 330 331 330 329 327 326 325 324 324 320 317 316 314
343 345 345 345 348 347 346 346 343 343 344 344 343 343 342 343 343 343 343 342 341 340 341 340 339 338 336 334 332 331 331 331 331 329 328 326 325 325 325 323 321 318 316
335 341 343 345 344 345 345 343 344 346 347 346 345 345 346 347 348 348 348 347 346 345 343 342 341 340 337 335 334 333 332 332 332 331 331 331 330 329 329 326 325 324 321
335 343 342 341 344 346 348 348 349 349 350 350 349 348 349 350 352 351 350 348 347 347 345 343 342 341 340 339 337 336 335 334 334 335 335 334 334 333 331 329 327 326 324
323 330 333 337 343 348 349 348 349 349 350 351 352 352 353 353 353 352 351 351 350 350 348 346 344 343 343 342 340 338 336 336 337 338 338 338 336 336 335 333 331 329 328
312 323 328 333 339 345 346 346 347 349 350 351 351 351 352 353 353 353 351 351 351 351 350 348 346 346 345 345 344 342 341 340 339 339 339 339 339 339 337 336 334 332 329